Regional Weather Roundup
Issued by NWS Upton, NY

Current Version | Previous Version | Text Only | Print | Product List | Glossary Off
Versions: 1 2 3 4 5 6 7 8 9 10 11 12 13 14 15 16 17 18 19 20 21 22 23 24 25 26 27 28 29 30 31 32 33 34 35 36 37 38 39 40 41 42 43 44 45 46 47 48 49 50
412 ASUS41 KOKX 201808 RWROKX REGIONAL WEATHER ROUNDUP NATIONAL WEATHER SERVICE NEW YORK NY 100 PM EST FRI JAN 20 2017 NOTE: "FAIR" INDICATES FEW OR NO CLOUDS BELOW 12,000 FEET WITH NO SIGNIFICANT WEATHER AND/OR OBSTRUCTIONS TO VISIBILITY. NYZ071-072-176-178-NJZ106-104-201900- NEW YORK CITY METRO AREA CITY SKY/WX TMP DP RH WIND PRES REMARKS Central Park CLOUDY 45 33 63 VRB6 29.98F Wall St Helipt CLOUDY 45 35 68 W5 29.98F Bronx Bot Gard NOT AVBL LaGuardia APRT CLOUDY 44 34 67 NE9 29.96F Kennedy INTL CLOUDY 46 29 51 VRB3 29.98F Breezy Point N/A 39 N/A N/A E6 N/A WCI 35 Newark/Liberty CLOUDY 44 34 67 SE6 29.96F Teterboro CLOUDY 45 34 65 CALM 29.96F $$ NYZ177-179-078>081-201900- LONG ISLAND NEW YORK CITY SKY/WX TMP DP RH WIND PRES REMARKS Jones Beach N/A 41 N/A N/A E6 N/A Matinecock PT N/A 39 N/A N/A E9 N/A WCI 33 Farmingdale CLOUDY 44 33 65 S5 29.97F MacArthur/ISP CLOUDY 44 33 65 E3 29.96F Shirley CLOUDY 44 33 65 CALM 29.98F Westhampton CLOUDY 43 31 62 CALM 30.00F Southampton NOT AVBL Bridgehampton NOT AVBL East Hampton CLOUDY 40 32 73 SE5 29.99F Montauk N/A 41 32 70 CALM 30.00F $$ NYZ052-065-067-201900- HUDSON VALLEY CITY SKY/WX TMP DP RH WIND PRES REMARKS White Plains CLOUDY 41 31 67 SE6 29.95F Newburgh CLOUDY 39 34 81 E6 29.95F WCI 35 Montgomery CLOUDY 42 32 67 VRB3 29.93F Poughkeepsie CLOUDY 41 31 67 E3 29.94F Albany CLOUDY 38 30 73 S9 29.95F WCI 31 $$ NJZ001-105-106-008-010-013-015-019>022-104-201900- NEW JERSEY CITY SKY/WX TMP DP RH WIND PRES REMARKS Newark/Liberty CLOUDY 44 34 67 SE6 29.96F Teterboro CLOUDY 45 34 65 CALM 29.96F Caldwell CLOUDY 43 33 68 SW5 29.96F Somerville CLOUDY 44 34 67 S6 29.93F Linden MOCLDY 44 34 68 CALM 29.97F Sussex CLOUDY 42 34 73 CALM 29.93F Andover N/A 41 33 73 SE7 29.93F Trenton LGT RAIN 41 36 82 E3 29.93F Millville LGT RAIN 41 39 93 E3 29.94F Atlantic City CLOUDY 44 37 76 S5 29.95F Wrightstown LGT RAIN 42 37 83 E3 29.91F Toms River CLOUDY 44 37 76 E3 29.95F Belmar CLOUDY 44 37 76 E8 29.96F $$ PAZ047>061-062-071-201900- EASTERN PENNSYLVANIA CITY SKY/WX TMP DP RH WIND PRES REMARKS Philadelphia RAIN 40 36 86 E5 29.95F FOG Allentown LGT RAIN 40 34 79 SE6 29.93F Scranton CLOUDY 42 34 73 S6 29.87F $$ CTZ002-004>006-009-010-012-RIZ004-006-007-MAZ004-011-015-201900- SOUTHERN NEW ENGLAND IN CT CITY SKY/WX TMP DP RH WIND PRES REMARKS Bradley INTL CLOUDY 40 30 67 SW8 29.97F WCI 34 Hartford CLOUDY 41 30 65 S5 29.98F Danbury CLOUDY 39 31 72 VRB5 29.96F Wtrbury/Oxford CLOUDY 39 28 65 SW5 29.97F Bridgeport CLOUDY 42 31 64 E6 29.97F Meriden CLOUDY 42 30 62 S8 29.98F New Haven CLOUDY 40 31 70 CALM 29.98F Chester CLOUDY 41 30 65 VRB5 29.97F Groton CLOUDY 42 31 64 S6 29.99F Wilimantic CLOUDY 42 30 62 CALM 29.98F IN RI CITY SKY/WX TMP DP RH WIND PRES REMARKS Providence PTSUNNY 42 29 59 CALM 29.98F Block Island NOT AVBL Westerly CLOUDY 43 28 55 SW6 29.99F IN MA CITY SKY/WX TMP DP RH WIND PRES REMARKS Boston CLOUDY 39 33 79 S5 29.98F Worcester CLOUDY 35 26 69 S6 29.94F WCI 30 Westfield CLOUDY 39 30 70 S5 29.96F Provincetown CLOUDY 42 30 62 N5 29.99F Nantucket CLOUDY 43 31 62 CALM 29.97F $$ ANZ330-335-338-340-345-350-353-355-201900- COASTAL MARINE OBSERVATIONS STATION/POSITION TIME SKY/WX TEMP WIND PRES VSBY WAVE AIR SEA DIR/SP/G HT/PER (UTC) (F) (DEG/KT/KT) (MB) (MI) (FT/S) NY HARB ENTRANCE 1650 42 44 90/ 6/ 8 1015.7 4/13 20 S FIRE ISLAND 1650 43 46 60/ 4/ 6 1015.8 5/13 GREAT SOUTH BAY NOT AVBL 23 SSW MONTAUK P 1650 42 48 70/ 8/ 10 1016.5 4/10 15 E BARNEGAT LI 1730 47 N/A 5/12 HUDSON CANYON 1650 48 51 1015.6 5/12 KINGS POINT 1742 40 39 1014.7 EXECUTION ROCKS 1745 40 50/ 6/ 8 N/A CENTRAL LI SOUND 1715 40 CALM N/A 0 EASTERN LI SOUND NOT AVBL ROBBINS REEF 1742 42 180/ 10/ 11 1015.2 $$ >>>>>>>>>>>>>>>>>>>>>>>>>>>> KEY <<<<<<<<<<<<<<<<<<<<<<<<<<< > < > SKY/WX - Sky Condition/Present Weather < > TMP - Temperature in Fahrenheit < > DP - Dew Point in Fahrenheit < > RH - Relative Humidity in Percent < > WIND - Direction (from) and Speed in MPH < > PRES - Mean Sea Level Pressure (inches of Hg) < > WCI - Wind Chill Index < > VSB - VISIBILITY IN MILES < > HX - HEAT INDEX < > TC - TEMPERATURE IN CELSIUS < > VRB - VARIABLE WIND DIRECTION < > < >>>>>>>>>>>>>>>>>>>>>>>>>>>> KEY <<<<<<<<<<<<<<<<<<<<<<<<<<<

USA.gov is the U.S. government's official web portal to all federal, state and local government web resources and services.